Time,TemperatureF,DewpointF,PressureIn,WindDirection,WindDirectionDegrees,WindSpeedMPH,WindSpeedGustMPH,Humidity,HourlyPrecipIn,Conditions,Clouds,dailyrainin,SolarRadiationWatts/m^2,SoftwareType,DateUTC
2013-03-25 00:00:00,33.9,28.4,29.71,SE,140,0.0,0.0,80,0.00,,OVC021,0.00,0.00,VWS V14.01,2013-03-25 04:00:00,
2013-03-25 00:05:00,33.9,28.4,29.71,SE,140,0.0,0.0,80,0.00,,OVC021,0.00,0.00,VWS V14.01,2013-03-25 04:05:00,
2013-03-25 00:10:00,33.8,28.3,29.71,SE,140,0.0,0.0,80,0.00,,OVC021,0.00,0.00,VWS V14.01,2013-03-25 04:10:00,
2013-03-25 00:15:00,33.8,28.6,29.71,SE,140,0.0,0.0,81,0.00,,OVC021,0.00,0.00,VWS V14.01,2013-03-25 04:15:00,
2013-03-25 00:20:00,33.7,28.2,29.71,SE,140,0.0,0.0,80,0.00,,OVC021,0.00,0.00,VWS V14.01,2013-03-25 04:20:00,
2013-03-25 00:25:00,33.6,28.1,29.71,SE,139,0.0,0.0,80,0.00,,OVC021,0.00,0.00,VWS V14.01,2013-03-25 04:25:00,
2013-03-25 00:30:00,33.6,28.1,29.71,SE,140,4.0,5.0,80,0.00,,OVC021,0.00,0.00,VWS V14.01,2013-03-25 04:30:00,
2013-03-25 00:35:00,33.7,28.2,29.71,SE,140,0.0,4.0,80,0.00,,OVC021,0.00,0.00,VWS V14.01,2013-03-25 04:35:00,
2013-03-25 00:40:00,33.6,28.1,29.71,SE,140,0.0,1.0,80,0.00,,OVC021,0.00,0.00,VWS V14.01,2013-03-25 04:40:00,
2013-03-25 00:45:00,33.6,28.1,29.71,SE,140,0.0,1.0,80,0.00,,OVC021,0.00,0.00,VWS V14.01,2013-03-25 04:45:00,
2013-03-25 00:50:00,33.5,28.0,29.70,SE,140,0.0,1.0,80,0.00,,OVC021,0.00,0.00,VWS V14.01,2013-03-25 04:50:00,
2013-03-25 00:55:00,33.3,27.8,29.71,SE,140,0.0,2.0,80,0.00,,OVC021,0.00,0.00,VWS V14.01,2013-03-25 04:55:00,
2013-03-25 01:00:00,33.2,27.7,29.70,SE,140,0.0,1.0,80,0.00,,OVC021,0.00,0.00,VWS V14.01,2013-03-25 05:00:00,
2013-03-25 01:05:00,33.2,28.0,29.70,SE,140,0.0,0.0,81,0.00,,OVC021,0.00,0.00,VWS V14.01,2013-03-25 05:05:00,
2013-03-25 01:10:00,33.2,28.0,29.70,SE,140,0.0,1.0,81,0.00,,OVC021,0.00,0.00,VWS V14.01,2013-03-25 05:10:00,
2013-03-25 01:15:00,33.1,27.9,29.70,SE,140,0.0,1.0,81,0.00,,OVC021,0.00,0.00,VWS V14.01,2013-03-25 05:15:00,
2013-03-25 01:20:00,32.9,27.7,29.70,SE,139,0.0,1.0,81,0.00,,OVC021,0.00,0.00,VWS V14.01,2013-03-25 05:20:00,
2013-03-25 01:25:00,32.8,27.6,29.70,SE,140,0.0,0.0,81,0.00,,OVC021,0.00,0.00,VWS V14.01,2013-03-25 05:25:00,
2013-03-25 01:30:00,32.7,27.5,29.70,SE,140,0.0,0.0,81,0.00,,OVC021,0.00,0.00,VWS V14.01,2013-03-25 05:30:00,
2013-03-25 01:35:00,32.5,27.6,29.69,SE,140,0.0,0.0,82,0.00,,OVC021,0.00,0.00,VWS V14.01,2013-03-25 05:35:00,
2013-03-25 01:40:00,32.4,27.5,29.70,SE,139,0.0,0.0,82,0.00,,OVC021,0.00,0.00,VWS V14.01,2013-03-25 05:40:00,
2013-03-25 01:45:00,32.3,27.4,29.69,SE,139,0.0,0.0,82,0.00,,OVC021,0.00,0.00,VWS V14.01,2013-03-25 05:45:00,
2013-03-25 01:50:00,32.1,27.5,29.69,SE,140,0.0,0.0,83,0.00,,OVC021,0.00,0.00,VWS V14.01,2013-03-25 05:50:00,
2013-03-25 01:55:00,31.9,27.3,29.69,SE,140,0.0,0.0,83,0.00,,OVC021,0.00,0.00,VWS V14.01,2013-03-25 05:55:00,
2013-03-25 02:00:00,31.6,27.3,29.69,SE,140,0.0,0.0,84,0.00,,OVC021,0.00,0.00,VWS V14.01,2013-03-25 06:00:00,
2013-03-25 02:05:00,31.4,27.1,29.69,SE,140,0.0,0.0,84,0.00,,OVC021,0.00,0.00,VWS V14.01,2013-03-25 06:05:00,
2013-03-25 02:10:00,31.2,26.9,29.69,SE,140,0.0,0.0,84,0.00,,OVC021,0.00,0.00,VWS V14.01,2013-03-25 06:10:00,
2013-03-25 02:15:00,31.0,26.7,29.69,SE,139,0.0,0.0,84,0.00,,OVC021,0.00,0.00,VWS V14.01,2013-03-25 06:15:00,
2013-03-25 02:20:00,30.9,26.6,29.69,SE,140,0.0,1.0,84,0.00,,OVC021,0.00,0.00,VWS V14.01,2013-03-25 06:20:00,
2013-03-25 02:25:00,30.8,26.8,29.69,SE,140,0.0,0.0,85,0.00,,OVC021,0.00,0.00,VWS V14.01,2013-03-25 06:25:00,
2013-03-25 02:30:00,30.6,26.6,29.69,SE,139,0.0,0.0,85,0.00,,OVC021,0.00,0.00,VWS V14.01,2013-03-25 06:30:00,
2013-03-25 02:35:00,30.4,26.4,29.69,SE,139,0.0,0.0,85,0.00,,OVC021,0.00,0.00,VWS V14.01,2013-03-25 06:35:00,
2013-03-25 02:40:00,30.2,26.2,29.69,SE,140,0.0,0.0,85,0.00,,OVC021,0.00,0.00,VWS V14.01,2013-03-25 06:40:00,
2013-03-25 02:45:00,30.2,26.5,29.69,SE,139,0.0,1.0,86,0.00,,OVC021,0.00,0.00,VWS V14.01,2013-03-25 06:45:00,
2013-03-25 02:50:00,30.1,26.4,29.69,SE,140,0.0,0.0,86,0.00,,OVC021,0.00,0.00,VWS V14.01,2013-03-25 06:50:00,
2013-03-25 02:55:00,29.9,26.2,29.69,SE,140,0.0,0.0,86,0.00,,OVC021,0.00,0.00,VWS V14.01,2013-03-25 06:55:00,
2013-03-25 03:00:00,29.8,26.1,29.69,SE,140,0.0,0.0,86,0.00,,OVC021,0.00,0.00,VWS V14.01,2013-03-25 07:00:00,
2013-03-25 03:05:00,29.8,26.4,29.68,SE,140,0.0,0.0,87,0.00,,OVC021,0.00,0.00,VWS V14.01,2013-03-25 07:05:00,
2013-03-25 03:10:00,29.6,26.2,29.68,SE,140,0.0,0.0,87,0.00,,OVC021,0.00,0.00,VWS V14.01,2013-03-25 07:10:00,
2013-03-25 03:15:00,29.5,26.1,29.68,SE,140,0.0,0.0,87,0.00,,OVC021,0.00,0.00,VWS V14.01,2013-03-25 07:15:00,
2013-03-25 03:20:00,29.4,26.0,29.68,SE,140,0.0,0.0,87,0.00,,OVC021,0.00,0.00,VWS V14.01,2013-03-25 07:20:00,
2013-03-25 03:25:00,29.4,26.0,29.68,SE,140,0.0,0.0,87,0.00,,OVC021,0.00,0.00,VWS V14.01,2013-03-25 07:25:00,
2013-03-25 03:30:00,29.4,26.3,29.68,SE,140,0.0,0.0,88,0.00,,OVC021,0.00,0.00,VWS V14.01,2013-03-25 07:30:00,
2013-03-25 03:35:00,29.3,26.2,29.68,SE,140,0.0,0.0,88,0.00,,OVC021,0.00,0.00,VWS V14.01,2013-03-25 07:35:00,
2013-03-25 03:40:00,29.4,26.3,29.68,SE,140,0.0,0.0,88,0.00,,OVC021,0.00,0.00,VWS V14.01,2013-03-25 07:40:00,
2013-03-25 03:45:00,29.3,26.2,29.68,SE,140,0.0,0.0,88,0.00,,OVC021,0.00,0.00,VWS V14.01,2013-03-25 07:45:00,
2013-03-25 03:50:00,29.2,26.1,29.67,SE,140,1.0,1.0,88,0.00,,OVC021,0.00,0.00,VWS V14.01,2013-03-25 07:50:00,
2013-03-25 03:55:00,29.3,26.2,29.67,SE,139,0.0,1.0,88,0.00,,OVC021,0.00,0.00,VWS V14.01,2013-03-25 07:55:00,
2013-03-25 04:00:00,29.2,26.1,29.68,SE,139,0.0,0.0,88,0.00,,OVC021,0.00,0.00,VWS V14.01,2013-03-25 08:00:00,
2013-03-25 04:05:00,29.2,25.8,29.67,SE,140,0.0,0.0,87,0.00,,OVC021,0.00,0.00,VWS V14.01,2013-03-25 08:05:00,
2013-03-25 04:10:00,29.1,25.7,29.67,SE,139,0.0,0.0,87,0.00,,OVC021,0.00,0.00,VWS V14.01,2013-03-25 08:10:00,
2013-03-25 04:15:00,29.0,25.6,29.67,SE,139,0.0,1.0,87,0.00,,OVC021,0.00,0.00,VWS V14.01,2013-03-25 08:15:00,
2013-03-25 04:20:00,28.9,25.5,29.66,SE,140,0.0,1.0,87,0.00,,OVC021,0.00,0.00,VWS V14.01,2013-03-25 08:20:00,
2013-03-25 04:25:00,29.0,25.6,29.67,SE,140,0.0,0.0,87,0.00,,OVC021,0.00,0.00,VWS V14.01,2013-03-25 08:25:00,
2013-03-25 04:30:00,29.1,25.7,29.66,SE,140,0.0,0.0,87,0.00,,OVC021,0.00,0.00,VWS V14.01,2013-03-25 08:30:00,
2013-03-25 04:35:00,29.2,25.5,29.66,SE,140,0.0,0.0,86,0.00,,OVC021,0.00,0.00,VWS V14.01,2013-03-25 08:35:00,
2013-03-25 04:40:00,29.3,25.6,29.66,SE,140,0.0,0.0,86,0.00,,OVC021,0.00,0.00,VWS V14.01,2013-03-25 08:40:00,
2013-03-25 04:45:00,29.3,25.1,29.66,SE,140,0.0,0.0,84,0.00,,OVC021,0.00,0.00,VWS V14.01,2013-03-25 08:45:00,
2013-03-25 04:50:00,29.3,25.1,29.66,SE,139,0.0,1.0,84,0.00,,OVC021,0.00,0.00,VWS V14.01,2013-03-25 08:50:00,
2013-03-25 04:55:00,29.3,25.1,29.66,SE,139,0.0,1.0,84,0.00,,OVC021,0.00,0.00,VWS V14.01,2013-03-25 08:55:00,
2013-03-25 05:00:00,29.2,24.7,29.67,SE,140,0.0,0.0,83,0.00,,OVC021,0.00,0.00,VWS V14.01,2013-03-25 09:00:00,
2013-03-25 05:05:00,29.2,25.0,29.66,SE,140,0.0,4.0,84,0.00,,OVC021,0.00,0.00,VWS V14.01,2013-03-25 09:05:00,
2013-03-25 05:10:00,29.2,24.7,29.66,SE,140,4.0,4.0,83,0.00,,OVC021,0.00,0.00,VWS V14.01,2013-03-25 09:10:00,
2013-03-25 05:15:00,29.4,24.9,29.65,SE,139,0.0,4.0,83,0.00,,OVC021,0.00,0.00,VWS V14.01,2013-03-25 09:15:00,
2013-03-25 05:20:00,29.4,24.6,29.65,SE,139,1.0,2.0,82,0.00,,OVC021,0.00,0.00,VWS V14.01,2013-03-25 09:20:00,
2013-03-25 05:25:00,29.4,24.6,29.65,SE,139,0.0,2.0,82,0.00,,OVC021,0.00,0.00,VWS V14.01,2013-03-25 09:25:00,
2013-03-25 05:30:00,29.3,24.5,29.65,SE,139,0.0,1.0,82,0.00,,OVC021,0.00,0.00,VWS V14.01,2013-03-25 09:30:00,
2013-03-25 05:35:00,29.4,24.3,29.66,SE,139,1.0,2.0,81,0.00,,OVC021,0.00,0.00,VWS V14.01,2013-03-25 09:35:00,
2013-03-25 05:40:00,29.4,24.3,29.65,SE,140,0.0,2.0,81,0.00,,OVC021,0.00,0.00,VWS V14.01,2013-03-25 09:40:00,
2013-03-25 05:45:00,29.5,24.4,29.65,SE,140,0.0,1.0,81,0.00,,OVC021,0.00,0.00,VWS V14.01,2013-03-25 09:45:00,
2013-03-25 05:50:00,29.5,24.4,29.65,SE,139,0.0,2.0,81,0.00,,OVC021,0.00,0.00,VWS V14.01,2013-03-25 09:50:00,
2013-03-25 05:55:00,29.5,24.4,29.65,SE,139,0.0,0.0,81,0.00,,OVC021,0.00,0.00,VWS V14.01,2013-03-25 09:55:00,
2013-03-25 06:00:00,29.4,24.0,29.65,SE,138,1.0,4.0,80,0.00,,OVC021,0.00,0.00,VWS V14.01,2013-03-25 10:00:00,
2013-03-25 06:05:00,29.5,24.1,29.65,ESE,108,0.0,4.0,80,0.00,,OVC021,0.00,0.00,VWS V14.01,2013-03-25 10:05:00,
2013-03-25 06:10:00,29.6,23.9,29.65,ESE,108,0.0,1.0,79,0.00,,OVC021,0.00,0.00,VWS V14.01,2013-03-25 10:10:00,
2013-03-25 06:15:00,29.7,24.0,29.65,NE,44,0.0,4.0,79,0.00,,OVC021,0.00,0.00,VWS V14.01,2013-03-25 10:15:00,
2013-03-25 06:20:00,29.7,24.0,29.65,NE,44,0.0,2.0,79,0.00,,OVC021,0.00,0.00,VWS V14.01,2013-03-25 10:20:00,
2013-03-25 06:25:00,29.7,23.7,29.64,NE,44,0.0,3.0,78,0.00,,OVC021,0.00,0.00,VWS V14.01,2013-03-25 10:25:00,
2013-03-25 06:30:00,29.8,23.8,29.64,NNE,32,1.0,4.0,78,0.00,,OVC021,0.00,0.00,VWS V14.01,2013-03-25 10:30:00,
2013-03-25 06:35:00,29.8,23.8,29.64,NNE,29,2.0,4.0,78,0.00,,OVC021,0.00,0.00,VWS V14.01,2013-03-25 10:35:00,
2013-03-25 06:40:00,29.8,23.8,29.66,NNE,29,0.0,4.0,78,0.00,,OVC021,0.00,0.00,VWS V14.01,2013-03-25 10:40:00,
2013-03-25 06:45:00,29.8,23.8,29.64,North,5,4.0,5.0,78,0.00,,OVC021,0.00,0.00,VWS V14.01,2013-03-25 10:45:00,
2013-03-25 06:50:00,29.8,23.8,29.65,North,5,1.0,4.0,78,0.00,,OVC021,0.00,0.00,VWS V14.01,2013-03-25 10:50:00,
2013-03-25 06:55:00,29.8,23.8,29.64,North,10,2.0,5.0,78,0.00,,OVC021,0.00,7.00,VWS V14.01,2013-03-25 10:55:00,
2013-03-25 07:00:00,29.8,23.5,29.65,North,11,2.0,4.0,77,0.00,,OVC021,0.00,11.00,VWS V14.01,2013-03-25 11:00:00,
2013-03-25 07:01:00,29.9,23.9,29.65,North,11,0.0,2.0,78,0.00,,OVC021,0.00,14.00,VWS V14.01,2013-03-25 11:01:00,
2013-03-25 07:02:00,29.9,23.9,29.65,North,11,0.0,2.0,78,0.00,,OVC021,0.00,14.00,VWS V14.01,2013-03-25 11:02:00,
2013-03-25 07:05:00,29.8,23.8,29.65,North,11,1.0,3.0,78,0.00,,OVC021,0.00,18.00,VWS V14.01,2013-03-25 11:05:00,
2013-03-25 07:10:00,29.9,23.9,29.65,North,10,1.0,4.0,78,0.00,,OVC021,0.00,23.00,VWS V14.01,2013-03-25 11:10:00,
2013-03-25 07:15:00,30.0,24.0,29.65,NNE,22,0.0,2.0,78,0.00,,OVC021,0.00,28.00,VWS V14.01,2013-03-25 11:15:00,
2013-03-25 07:20:00,30.0,24.0,29.65,NNE,22,1.0,3.0,78,0.00,,OVC021,0.00,32.00,VWS V14.01,2013-03-25 11:20:00,
2013-03-25 07:21:00,30.0,24.0,29.65,NNE,22,1.0,2.0,78,0.00,,OVC021,0.00,35.00,VWS V14.01,2013-03-25 11:21:00,
2013-03-25 07:25:00,30.0,24.0,29.65,NNE,22,0.0,2.0,78,0.00,,OVC021,0.00,37.00,VWS V14.01,2013-03-25 11:25:00,
2013-03-25 07:26:00,30.0,24.0,29.65,NNE,22,2.0,3.0,78,0.00,,OVC021,0.00,42.00,VWS V14.01,2013-03-25 11:26:00,
2013-03-25 07:30:00,30.1,24.1,29.65,NNE,22,0.0,3.0,78,0.00,,OVC021,0.00,44.00,VWS V14.01,2013-03-25 11:30:00,
2013-03-25 07:31:00,30.1,24.1,29.66,NNE,22,3.0,4.0,78,0.00,,OVC021,0.00,51.00,VWS V14.01,2013-03-25 11:31:00,
2013-03-25 07:35:00,30.1,23.8,29.66,NNE,22,3.0,4.0,77,0.00,,OVC021,0.00,53.00,VWS V14.01,2013-03-25 11:35:00,
2013-03-25 07:37:00,30.3,24.0,29.65,NNE,22,3.0,3.0,77,0.00,,OVC021,0.00,60.00,VWS V14.01,2013-03-25 11:37:00,
2013-03-25 07:40:00,30.3,24.0,29.65,NNE,22,2.0,4.0,77,0.00,,OVC021,0.00,62.00,VWS V14.01,2013-03-25 11:40:00,
2013-03-25 07:42:00,30.4,24.1,29.65,NNE,22,2.0,5.0,77,0.00,,OVC021,0.00,69.00,VWS V14.01,2013-03-25 11:42:00,
2013-03-25 07:45:00,30.4,24.1,29.65,NNE,22,3.0,5.0,77,0.00,,OVC021,0.00,69.00,VWS V14.01,2013-03-25 11:45:00,
2013-03-25 07:47:00,30.5,24.2,29.65,NNE,22,2.0,4.0,77,0.00,,OVC021,0.00,76.00,VWS V14.01,2013-03-25 11:47:00,
2013-03-25 07:50:00,30.5,24.2,29.65,NNE,22,3.0,4.0,77,0.00,,OVC021,0.00,77.00,VWS V14.01,2013-03-25 11:50:00,
2013-03-25 07:52:00,30.6,24.3,29.65,NNE,21,2.0,5.0,77,0.00,,OVC021,0.00,84.00,VWS V14.01,2013-03-25 11:52:00,
2013-03-25 07:55:00,30.6,25.8,29.65,NNE,22,3.0,5.0,82,0.00,,OVC021,0.00,86.00,VWS V14.01,2013-03-25 11:55:00,
2013-03-25 07:57:00,30.7,24.4,29.65,NNE,22,4.0,5.0,77,0.00,,OVC021,0.00,91.00,VWS V14.01,2013-03-25 11:57:00,
2013-03-25 08:00:00,30.7,24.4,29.65,NNE,22,2.0,5.0,77,0.00,,OVC021,0.00,93.00,VWS V14.01,2013-03-25 12:00:00,
2013-03-25 08:03:00,30.9,24.2,29.65,NNE,22,3.0,4.0,76,0.00,,OVC021,0.00,102.00,VWS V14.01,2013-03-25 12:03:00,
2013-03-25 08:05:00,30.9,24.2,29.65,NNE,21,3.0,4.0,76,0.00,,OVC021,0.00,102.00,VWS V14.01,2013-03-25 12:05:00,
2013-03-25 08:08:00,31.0,24.3,29.65,NNE,21,2.0,5.0,76,0.00,,OVC021,0.00,116.00,VWS V14.01,2013-03-25 12:08:00,
2013-03-25 08:10:00,31.0,24.3,29.65,NNE,22,2.0,5.0,76,0.00,,OVC021,0.00,116.00,VWS V14.01,2013-03-25 12:10:00,
2013-03-25 08:13:00,31.1,24.4,29.66,NNE,22,4.0,5.0,76,0.00,,OVC021,0.00,127.00,VWS V14.01,2013-03-25 12:13:00,
2013-03-25 08:15:00,31.1,24.4,29.66,NNE,22,4.0,5.0,76,0.00,,OVC021,0.00,127.00,VWS V14.01,2013-03-25 12:15:00,
2013-03-25 08:18:00,31.3,24.6,29.65,North,9,6.0,7.0,76,0.00,,OVC021,0.00,134.00,VWS V14.01,2013-03-25 12:18:00,
2013-03-25 08:20:00,31.3,24.6,29.65,North,9,6.0,7.0,76,0.00,,OVC021,0.00,134.00,VWS V14.01,2013-03-25 12:20:00,
2013-03-25 08:23:00,31.5,24.8,29.65,NNE,14,4.0,4.0,76,0.00,,OVC021,0.00,149.00,VWS V14.01,2013-03-25 12:23:00,
2013-03-25 08:25:00,31.6,24.9,29.65,NNE,13,2.0,6.0,76,0.00,,OVC021,0.00,149.00,VWS V14.01,2013-03-25 12:25:00,
2013-03-25 08:28:00,31.8,25.1,29.66,NNE,15,4.0,4.0,76,0.00,,OVC021,0.00,156.00,VWS V14.01,2013-03-25 12:28:00,
2013-03-25 08:30:00,31.7,25.0,29.67,NNE,15,3.0,6.0,76,0.00,,OVC021,0.00,156.00,VWS V14.01,2013-03-25 12:30:00,
2013-03-25 08:33:00,32.0,25.3,29.65,North,5,4.0,5.0,76,0.00,,OVC021,0.00,162.00,VWS V14.01,2013-03-25 12:33:00,
2013-03-25 08:35:00,31.9,25.2,29.65,North,5,4.0,8.0,76,0.00,,OVC021,0.00,162.00,VWS V14.01,2013-03-25 12:35:00,
2013-03-25 08:38:00,32.1,25.4,29.65,NNE,26,2.0,3.0,76,0.00,,OVC021,0.00,169.00,VWS V14.01,2013-03-25 12:38:00,
2013-03-25 08:40:00,32.1,25.1,29.65,NNE,25,3.0,7.0,75,0.00,,OVC021,0.00,167.00,VWS V14.01,2013-03-25 12:40:00,
2013-03-25 08:44:00,32.4,25.7,29.65,NNE,15,3.0,4.0,76,0.00,,OVC021,0.00,181.00,VWS V14.01,2013-03-25 12:44:00,
2013-03-25 08:45:00,32.3,25.3,29.65,NNE,15,3.0,6.0,75,0.00,,OVC021,0.00,179.00,VWS V14.01,2013-03-25 12:45:00,
2013-03-25 08:49:00,32.6,25.9,29.65,North,360,6.0,6.0,76,0.00,,OVC021,0.00,188.00,VWS V14.01,2013-03-25 12:49:00,
2013-03-25 08:50:00,32.5,25.8,29.65,North,355,3.0,8.0,76,0.00,,OVC021,0.00,186.00,VWS V14.01,2013-03-25 12:50:00,
2013-03-25 08:54:00,32.8,25.8,29.65,NNE,15,4.0,5.0,75,0.00,,OVC021,0.00,200.00,VWS V14.01,2013-03-25 12:54:00,
2013-03-25 08:55:00,32.7,26.0,29.65,NNE,15,4.0,6.0,76,0.00,,OVC021,0.00,195.00,VWS V14.01,2013-03-25 12:55:00,
2013-03-25 08:59:00,33.0,26.3,29.65,NNE,15,3.0,6.0,76,0.00,,OVC021,0.00,220.00,VWS V14.01,2013-03-25 12:59:00,
2013-03-25 09:00:00,33.0,26.3,29.65,NNE,13,3.0,5.0,76,0.00,,OVC021,0.00,211.00,VWS V14.01,2013-03-25 13:00:00,
2013-03-25 09:05:00,33.3,26.6,29.65,NE,40,5.0,8.0,76,0.00,,OVC021,0.00,243.00,VWS V14.01,2013-03-25 13:05:00,
2013-03-25 09:10:00,33.7,27.0,29.65,NNE,28,3.0,4.0,76,0.00,,OVC021,0.00,265.00,VWS V14.01,2013-03-25 13:10:00,
2013-03-25 09:15:00,34.1,27.3,29.65,NNE,14,4.0,7.0,76,0.00,,OVC021,0.00,257.00,VWS V14.01,2013-03-25 13:15:00,
2013-03-25 09:20:00,34.3,27.5,29.64,NNE,22,4.0,7.0,76,0.00,,OVC021,0.00,265.00,VWS V14.01,2013-03-25 13:20:00,
2013-03-25 09:25:00,34.6,27.8,29.64,ENE,60,1.0,5.0,76,0.00,,OVC021,0.00,392.00,VWS V14.01,2013-03-25 13:25:00,
2013-03-25 09:30:00,35.2,28.4,29.64,NNE,24,3.0,12.0,76,0.00,,OVC021,0.00,577.00,VWS V14.01,2013-03-25 13:30:00,
2013-03-25 09:35:00,35.5,28.7,29.64,North,360,5.0,12.0,76,0.00,,OVC021,0.00,599.00,VWS V14.01,2013-03-25 13:35:00,
2013-03-25 09:36:00,35.8,29.0,29.64,ENE,70,4.0,10.0,76,0.00,,OVC021,0.00,540.00,VWS V14.01,2013-03-25 13:36:00,
2013-03-25 09:40:00,35.9,29.1,29.64,NE,49,6.0,11.0,76,0.00,,OVC021,0.00,420.00,VWS V14.01,2013-03-25 13:40:00,
2013-03-25 09:41:00,35.8,29.0,29.64,NNE,24,5.0,8.0,76,0.00,,OVC021,0.00,390.00,VWS V14.01,2013-03-25 13:41:00,
2013-03-25 09:45:00,35.9,29.1,29.63,NE,53,4.0,8.0,76,0.00,,OVC021,0.00,406.00,VWS V14.01,2013-03-25 13:45:00,
2013-03-25 09:46:00,36.1,29.3,29.63,ENE,74,6.0,10.0,76,0.00,,OVC021,0.00,455.00,VWS V14.01,2013-03-25 13:46:00,
2013-03-25 09:50:00,36.1,29.3,29.63,NNE,32,3.0,13.0,76,0.00,,OVC021,0.00,455.00,VWS V14.01,2013-03-25 13:50:00,
2013-03-25 09:51:00,36.1,29.3,29.63,NE,38,8.0,13.0,76,0.00,,OVC021,0.00,536.00,VWS V14.01,2013-03-25 13:51:00,
2013-03-25 09:55:00,36.1,29.6,29.63,NE,53,5.0,13.0,77,0.00,,OVC021,0.00,566.00,VWS V14.01,2013-03-25 13:55:00,
2013-03-25 09:56:00,36.3,29.8,29.63,ENE,61,6.0,12.0,77,0.00,,OVC021,0.00,529.00,VWS V14.01,2013-03-25 13:56:00,
2013-03-25 10:00:00,36.4,29.9,29.63,North,10,9.0,12.0,77,0.00,,OVC021,0.00,469.00,VWS V14.01,2013-03-25 14:00:00,
2013-03-25 10:02:00,36.6,30.1,29.62,ENE,74,7.0,16.0,77,0.00,,OVC021,0.00,443.00,VWS V14.01,2013-03-25 14:02:00,
2013-03-25 10:05:00,36.7,30.2,29.62,NNE,32,4.0,16.0,77,0.00,,OVC021,0.00,496.00,VWS V14.01,2013-03-25 14:05:00,
2013-03-25 10:07:00,36.9,30.4,29.63,ENE,74,5.0,11.0,77,0.00,,OVC021,0.00,469.00,VWS V14.01,2013-03-25 14:07:00,
2013-03-25 10:10:00,36.9,30.4,29.63,ENE,74,3.0,11.0,77,0.00,,OVC021,0.00,438.00,VWS V14.01,2013-03-25 14:10:00,
2013-03-25 10:12:00,37.2,30.7,29.62,ENE,78,6.0,11.0,77,0.00,,OVC021,0.00,422.00,VWS V14.01,2013-03-25 14:12:00,
2013-03-25 10:15:00,37.2,30.4,29.62,ENE,65,10.0,11.0,76,0.00,,OVC021,0.00,288.00,VWS V14.01,2013-03-25 14:15:00,
2013-03-25 10:17:00,37.3,30.4,29.62,NE,46,6.0,10.0,76,0.00,,OVC021,0.00,309.00,VWS V14.01,2013-03-25 14:17:00,
2013-03-25 10:20:00,37.3,30.4,29.62,North,5,7.0,10.0,76,0.00,,OVC021,0.00,309.00,VWS V14.01,2013-03-25 14:20:00,
2013-03-25 10:22:00,37.2,30.4,29.62,NE,48,8.0,17.0,76,0.00,,OVC021,0.00,397.00,VWS V14.01,2013-03-25 14:22:00,
2013-03-25 10:25:00,37.3,30.4,29.62,NE,43,7.0,17.0,76,0.00,,OVC021,0.00,397.00,VWS V14.01,2013-03-25 14:25:00,
2013-03-25 10:28:00,37.3,30.8,29.61,NE,54,3.0,12.0,77,0.00,,OVC021,0.00,427.00,VWS V14.01,2013-03-25 14:28:00,
2013-03-25 10:30:00,37.3,30.8,29.61,ENE,77,5.0,12.0,77,0.00,,OVC021,0.00,427.00,VWS V14.01,2013-03-25 14:30:00,
2013-03-25 10:33:00,37.4,30.9,29.61,NE,46,8.0,17.0,77,0.00,,OVC021,0.00,431.00,VWS V14.01,2013-03-25 14:33:00,
2013-03-25 10:35:00,37.4,30.9,29.61,NE,46,8.0,17.0,77,0.00,,OVC021,0.00,431.00,VWS V14.01,2013-03-25 14:35:00,
2013-03-25 10:38:00,37.6,31.1,29.61,ENE,76,17.0,17.0,77,0.00,,OVC021,0.00,450.00,VWS V14.01,2013-03-25 14:38:00,
2013-03-25 10:40:00,37.6,31.1,29.61,ENE,77,17.0,18.0,77,0.00,,OVC021,0.00,450.00,VWS V14.01,2013-03-25 14:40:00,
2013-03-25 10:43:00,37.9,31.4,29.61,East,82,12.0,17.0,77,0.00,,OVC021,0.00,439.00,VWS V14.01,2013-03-25 14:43:00,
2013-03-25 10:45:00,37.9,31.4,29.61,East,82,12.0,17.0,77,0.00,,OVC021,0.00,439.00,VWS V14.01,2013-03-25 14:45:00,
2013-03-25 10:48:00,38.1,31.2,29.61,East,101,13.0,13.0,76,0.00,,OVC021,0.00,352.00,VWS V14.01,2013-03-25 14:48:00,
2013-03-25 10:50:00,38.0,31.1,29.61,East,88,10.0,15.0,76,0.00,,OVC021,0.00,352.00,VWS V14.01,2013-03-25 14:50:00,
2013-03-25 10:53:00,38.3,31.4,29.61,NE,39,5.0,6.0,76,0.00,,OVC021,0.00,343.00,VWS V14.01,2013-03-25 14:53:00,
2013-03-25 10:55:00,38.3,31.4,29.61,ENE,74,3.0,13.0,76,0.00,,OVC021,0.00,367.00,VWS V14.01,2013-03-25 14:55:00,
2013-03-25 10:58:00,38.3,31.1,29.62,NE,53,12.0,12.0,75,0.00,,OVC021,0.00,346.00,VWS V14.01,2013-03-25 14:58:00,
2013-03-25 11:00:00,38.4,31.2,29.62,NE,56,8.0,14.0,75,0.00,,OVC021,0.00,322.00,VWS V14.01,2013-03-25 15:00:00,
2013-03-25 11:03:00,38.1,31.2,29.61,ENE,75,6.0,13.0,76,0.00,,OVC021,0.00,359.00,VWS V14.01,2013-03-25 15:03:00,
2013-03-25 11:05:00,38.2,31.3,29.61,ENE,61,10.0,15.0,76,0.00,,OVC021,0.00,376.00,VWS V14.01,2013-03-25 15:05:00,
2013-03-25 11:09:00,38.3,31.4,29.61,NNE,15,6.0,12.0,76,0.00,,OVC021,0.00,348.00,VWS V14.01,2013-03-25 15:09:00,
2013-03-25 11:10:00,38.3,31.4,29.61,NE,40,4.0,13.0,76,0.00,,OVC021,0.00,367.00,VWS V14.01,2013-03-25 15:10:00,
2013-03-25 11:14:00,38.6,31.7,29.61,ESE,115,8.0,13.0,76,0.00,,OVC021,0.00,531.00,VWS V14.01,2013-03-25 15:14:00,
2013-03-25 11:15:00,38.5,31.3,29.61,ENE,74,12.0,14.0,75,0.00,,OVC021,0.00,531.00,VWS V14.01,2013-03-25 15:15:00,
2013-03-25 11:19:00,38.7,31.1,29.61,ENE,65,8.0,12.0,74,0.00,,OVC021,0.00,406.00,VWS V14.01,2013-03-25 15:19:00,
2013-03-25 11:20:00,38.7,31.5,29.61,East,80,6.0,13.0,75,0.00,,OVC021,0.00,390.00,VWS V14.01,2013-03-25 15:20:00,
2013-03-25 11:24:00,38.8,31.2,29.61,ENE,70,6.0,11.0,74,0.00,,OVC021,0.00,366.00,VWS V14.01,2013-03-25 15:24:00,
2013-03-25 11:25:00,38.8,31.2,29.61,NE,34,9.0,12.0,74,0.00,,OVC021,0.00,366.00,VWS V14.01,2013-03-25 15:25:00,
2013-03-25 11:29:00,38.7,31.1,29.61,NE,39,11.0,13.0,74,0.00,,OVC021,0.00,492.00,VWS V14.01,2013-03-25 15:29:00,
2013-03-25 11:30:00,38.8,30.9,29.61,NE,56,12.0,19.0,73,0.00,,OVC021,0.00,476.00,VWS V14.01,2013-03-25 15:30:00,
2013-03-25 11:34:00,38.6,30.7,29.60,NE,36,5.0,15.0,73,0.00,,OVC021,0.00,445.00,VWS V14.01,2013-03-25 15:34:00,
2013-03-25 11:35:00,38.6,31.0,29.60,East,86,11.0,20.0,74,0.00,,OVC021,0.00,633.00,VWS V14.01,2013-03-25 15:35:00,
2013-03-25 11:40:00,39.0,31.1,29.60,East,83,7.0,12.0,73,0.00,,OVC021,0.00,631.00,VWS V14.01,2013-03-25 15:40:00,
2013-03-25 11:45:00,39.0,31.1,29.60,NNE,33,3.0,15.0,73,0.00,,OVC021,0.00,661.00,VWS V14.01,2013-03-25 15:45:00,
2013-03-25 11:50:00,39.2,31.0,29.60,NE,44,10.0,15.0,72,0.00,,OVC021,0.00,629.00,VWS V14.01,2013-03-25 15:50:00,
2013-03-25 11:55:00,39.0,30.8,29.60,ENE,72,11.0,23.0,72,0.00,,OVC021,0.00,401.00,VWS V14.01,2013-03-25 15:55:00,
2013-03-25 12:00:00,39.0,31.4,29.59,NE,50,4.0,7.0,74,0.00,,OVC021,0.00,367.00,VWS V14.01,2013-03-25 16:00:00,
2013-03-25 12:05:00,39.2,31.3,29.59,NE,54,8.0,15.0,73,0.00,,OVC021,0.00,360.00,VWS V14.01,2013-03-25 16:05:00,
2013-03-25 12:10:00,39.1,31.2,29.59,NE,36,14.0,15.0,73,0.00,,OVC021,0.00,364.00,VWS V14.01,2013-03-25 16:10:00,
2013-03-25 12:15:00,39.1,30.9,29.60,NNE,30,8.0,19.0,72,0.00,,OVC021,0.00,886.00,VWS V14.01,2013-03-25 16:15:00,
2013-03-25 12:20:00,39.2,31.0,29.59,NE,50,5.0,19.0,72,0.00,,OVC021,0.00,918.00,VWS V14.01,2013-03-25 16:20:00,
2013-03-25 12:21:00,39.4,31.1,29.60,NE,51,5.0,18.0,72,0.00,,OVC021,0.00,816.00,VWS V14.01,2013-03-25 16:21:00,
2013-03-25 12:25:00,39.5,31.2,29.59,NE,38,8.0,18.0,72,0.00,,OVC021,0.00,853.00,VWS V14.01,2013-03-25 16:25:00,
2013-03-25 12:26:00,39.7,31.4,29.59,East,93,5.0,10.0,72,0.00,,OVC021,0.00,496.00,VWS V14.01,2013-03-25 16:26:00,
2013-03-25 12:30:00,39.8,31.5,29.59,NE,37,6.0,13.0,72,0.00,,OVC021,0.00,299.00,VWS V14.01,2013-03-25 16:30:00,
2013-03-25 12:31:00,39.6,30.6,29.59,NNE,28,5.0,14.0,70,0.00,,OVC021,0.00,264.00,VWS V14.01,2013-03-25 16:31:00,
2013-03-25 12:35:00,39.5,30.9,29.59,ENE,67,7.0,14.0,71,0.00,,OVC021,0.00,255.00,VWS V14.01,2013-03-25 16:35:00,
2013-03-25 12:36:00,39.2,31.0,29.58,NE,53,13.0,15.0,72,0.00,,OVC021,0.00,223.00,VWS V14.01,2013-03-25 16:36:00,
2013-03-25 12:40:00,39.1,30.9,29.59,East,79,7.0,15.0,72,0.00,,OVC021,0.00,239.00,VWS V14.01,2013-03-25 16:40:00,
2013-03-25 12:41:00,38.8,30.6,29.58,NE,53,6.0,14.0,72,0.00,,OVC021,0.00,237.00,VWS V14.01,2013-03-25 16:41:00,
2013-03-25 12:45:00,38.8,30.9,29.58,ENE,67,13.0,17.0,73,0.00,,OVC021,0.00,214.00,VWS V14.01,2013-03-25 16:45:00,
2013-03-25 12:46:00,38.8,30.9,29.59,ENE,64,8.0,14.0,73,0.00,,OVC021,0.00,216.00,VWS V14.01,2013-03-25 16:46:00,
2013-03-25 12:50:00,38.8,30.6,29.59,ENE,76,12.0,14.0,72,0.00,,OVC021,0.00,197.00,VWS V14.01,2013-03-25 16:50:00,
2013-03-25 12:51:00,38.8,30.6,29.58,ENE,70,11.0,16.0,72,0.00,,OVC021,0.00,171.00,VWS V14.01,2013-03-25 16:51:00,
2013-03-25 12:55:00,38.8,30.6,29.58,East,82,12.0,16.0,72,0.00,,OVC021,0.00,165.00,VWS V14.01,2013-03-25 16:55:00,
2013-03-25 12:57:00,38.9,30.3,29.58,NE,42,8.0,19.0,71,0.00,,OVC021,0.00,134.00,VWS V14.01,2013-03-25 16:57:00,
2013-03-25 13:00:00,38.9,30.3,29.58,ENE,65,5.0,19.0,71,0.00,,OVC021,0.00,127.00,VWS V14.01,2013-03-25 17:00:00,
2013-03-25 13:02:00,38.8,30.6,29.57,East,82,12.0,12.0,72,0.00,,OVC021,0.00,118.00,VWS V14.01,2013-03-25 17:02:00,
2013-03-25 13:05:00,38.8,30.6,29.57,NE,40,4.0,12.0,72,0.00,,OVC021,0.00,109.00,VWS V14.01,2013-03-25 17:05:00,
2013-03-25 13:07:00,38.8,30.9,29.57,NNE,19,10.0,17.0,73,0.00,,OVC021,0.00,114.00,VWS V14.01,2013-03-25 17:07:00,
2013-03-25 13:10:00,38.7,30.8,29.57,NE,44,13.0,17.0,73,0.00,,OVC021,0.00,123.00,VWS V14.01,2013-03-25 17:10:00,
2013-03-25 13:12:00,38.3,31.1,29.57,East,90,8.0,18.0,75,0.00,,OVC021,0.00,151.00,VWS V14.01,2013-03-25 17:12:00,
2013-03-25 13:15:00,38.3,31.1,29.57,ENE,57,7.0,18.0,75,0.00,,OVC021,0.00,149.00,VWS V14.01,2013-03-25 17:15:00,
2013-03-25 13:17:00,38.2,31.0,29.57,NNE,28,8.0,13.0,75,0.00,,OVC021,0.00,141.00,VWS V14.01,2013-03-25 17:17:00,
2013-03-25 13:20:00,38.2,31.0,29.57,NE,51,13.0,13.0,75,0.00,,OVC021,0.00,144.00,VWS V14.01,2013-03-25 17:20:00,
2013-03-25 13:23:00,38.3,31.1,29.57,ENE,64,11.0,13.0,75,0.00,,OVC021,0.00,144.00,VWS V14.01,2013-03-25 17:23:00,
2013-03-25 13:25:00,38.3,31.1,29.57,NE,53,7.0,13.0,75,0.00,,OVC021,0.00,144.00,VWS V14.01,2013-03-25 17:25:00,
2013-03-25 13:28:00,38.4,30.9,29.57,ENE,68,12.0,12.0,74,0.00,,OVC021,0.00,139.00,VWS V14.01,2013-03-25 17:28:00,
2013-03-25 13:30:00,38.4,30.9,29.57,NE,44,10.0,15.0,74,0.00,,OVC021,0.00,139.00,VWS V14.01,2013-03-25 17:30:00,
2013-03-25 13:33:00,38.2,31.0,29.57,East,94,7.0,19.0,75,0.00,,OVC021,0.00,128.00,VWS V14.01,2013-03-25 17:33:00,
2013-03-25 13:35:00,38.2,31.0,29.57,East,94,7.0,19.0,75,0.00,,OVC021,0.00,128.00,VWS V14.01,2013-03-25 17:35:00,
2013-03-25 13:38:00,38.3,31.1,29.57,ENE,76,3.0,15.0,75,0.00,,OVC021,0.00,192.00,VWS V14.01,2013-03-25 17:38:00,
2013-03-25 13:40:00,38.3,31.1,29.57,ENE,76,3.0,15.0,75,0.00,,OVC021,0.00,192.00,VWS V14.01,2013-03-25 17:40:00,
2013-03-25 13:43:00,38.4,30.9,29.56,East,83,8.0,9.0,74,0.00,,OVC021,0.00,171.00,VWS V14.01,2013-03-25 17:43:00,
2013-03-25 13:45:00,38.4,30.9,29.56,East,92,9.0,14.0,74,0.00,,OVC021,0.00,171.00,VWS V14.01,2013-03-25 17:45:00,
2013-03-25 13:48:00,38.5,31.0,29.56,East,86,11.0,11.0,74,0.00,,OVC021,0.00,158.00,VWS V14.01,2013-03-25 17:48:00,
2013-03-25 13:50:00,38.5,31.0,29.56,SE,135,10.0,14.0,74,0.00,,OVC021,0.00,158.00,VWS V14.01,2013-03-25 17:50:00,
2013-03-25 13:53:00,38.4,31.2,29.56,East,94,11.0,13.0,75,0.00,,OVC021,0.00,135.00,VWS V14.01,2013-03-25 17:53:00,
2013-03-25 13:55:00,38.4,31.2,29.56,ENE,70,13.0,13.0,75,0.00,,OVC021,0.00,135.00,VWS V14.01,2013-03-25 17:55:00,
2013-03-25 13:58:00,38.3,30.8,29.56,NE,49,8.0,10.0,74,0.00,,OVC021,0.00,169.00,VWS V14.01,2013-03-25 17:58:00,
2013-03-25 14:00:00,38.3,30.8,29.56,East,87,10.0,17.0,74,0.00,,OVC021,0.00,163.00,VWS V14.01,2013-03-25 18:00:00,
2013-03-25 14:03:00,38.3,31.1,29.56,ENE,60,13.0,13.0,75,0.00,,OVC021,0.00,163.00,VWS V14.01,2013-03-25 18:03:00,
2013-03-25 14:05:00,38.3,31.1,29.56,NNE,25,8.0,18.0,75,0.00,,OVC021,0.00,162.00,VWS V14.01,2013-03-25 18:05:00,
2013-03-25 14:08:00,38.3,30.8,29.56,ENE,73,5.0,11.0,74,0.00,,OVC021,0.00,120.00,VWS V14.01,2013-03-25 18:08:00,
2013-03-25 14:10:00,38.3,30.8,29.56,ENE,65,6.0,17.0,74,0.00,,OVC021,0.00,127.00,VWS V14.01,2013-03-25 18:10:00,
2013-03-25 14:13:00,38.4,31.2,29.56,ENE,67,5.0,8.0,75,0.00,,OVC021,0.00,95.00,VWS V14.01,2013-03-25 18:13:00,
2013-03-25 14:15:00,38.4,31.2,29.56,ENE,71,6.0,11.0,75,0.00,,OVC021,0.00,98.00,VWS V14.01,2013-03-25 18:15:00,
2013-03-25 14:19:00,38.3,31.1,29.55,ENE,78,11.0,12.0,75,0.00,,OVC021,0.00,100.00,VWS V14.01,2013-03-25 18:19:00,
2013-03-25 14:20:00,38.3,31.1,29.55,NE,37,7.0,14.0,75,0.00,,OVC021,0.00,98.00,VWS V14.01,2013-03-25 18:20:00,
2013-03-25 14:24:00,38.2,30.7,29.55,ENE,65,8.0,14.0,74,0.00,,OVC021,0.00,139.00,VWS V14.01,2013-03-25 18:24:00,
2013-03-25 14:25:00,38.3,30.8,29.55,ENE,57,14.0,16.0,74,0.00,,OVC021,0.00,134.00,VWS V14.01,2013-03-25 18:25:00,
2013-03-25 14:29:00,38.4,30.9,29.55,ENE,57,5.0,8.0,74,0.00,,OVC021,0.00,137.00,VWS V14.01,2013-03-25 18:29:00,
2013-03-25 14:30:00,38.3,30.8,29.55,ENE,63,6.0,14.0,74,0.00,,OVC021,0.00,158.00,VWS V14.01,2013-03-25 18:30:00,
2013-03-25 14:34:00,38.4,30.9,29.56,East,101,11.0,18.0,74,0.00,,OVC021,0.00,118.00,VWS V14.01,2013-03-25 18:34:00,
2013-03-25 14:35:00,38.4,30.9,29.54,East,88,13.0,15.0,74,0.00,,OVC021,0.00,123.00,VWS V14.01,2013-03-25 18:35:00,
2013-03-25 14:39:00,38.4,30.5,29.55,East,86,11.0,16.0,73,0.00,,OVC021,0.00,151.00,VWS V14.01,2013-03-25 18:39:00,
2013-03-25 14:40:00,38.4,30.5,29.55,East,92,16.0,18.0,73,0.00,,OVC021,0.00,141.00,VWS V14.01,2013-03-25 18:40:00,
2013-03-25 14:45:00,38.5,30.6,29.54,East,82,10.0,14.0,73,0.00,,OVC021,0.00,185.00,VWS V14.01,2013-03-25 18:45:00,
2013-03-25 14:50:00,38.5,31.0,29.54,NE,52,8.0,11.0,74,0.00,,OVC021,0.00,213.00,VWS V14.01,2013-03-25 18:50:00,
2013-03-25 14:55:00,38.6,30.7,29.53,East,88,10.0,14.0,73,0.00,,OVC021,0.00,188.00,VWS V14.01,2013-03-25 18:55:00,
2013-03-25 15:00:00,38.7,30.8,29.53,East,94,2.0,14.0,73,0.00,,OVC021,0.00,230.00,VWS V14.01,2013-03-25 19:00:00,
2013-03-25 15:05:00,38.7,30.5,29.53,ENE,78,8.0,14.0,72,0.00,,OVC021,0.00,258.00,VWS V14.01,2013-03-25 19:05:00,
2013-03-25 15:10:00,38.7,30.8,29.52,ENE,75,13.0,15.0,73,0.00,,OVC021,0.00,202.00,VWS V14.01,2013-03-25 19:10:00,
2013-03-25 15:15:00,38.7,30.8,29.51,ENE,73,7.0,15.0,73,0.00,,OVC021,0.00,169.00,VWS V14.01,2013-03-25 19:15:00,
2013-03-25 15:16:00,38.8,30.6,29.51,East,86,6.0,14.0,72,0.00,,OVC021,0.00,142.00,VWS V14.01,2013-03-25 19:16:00,
2013-03-25 15:20:00,38.8,30.9,29.51,East,83,3.0,14.0,73,0.00,,OVC021,0.00,183.00,VWS V14.01,2013-03-25 19:20:00,
2013-03-25 15:21:00,39.0,30.8,29.50,ENE,71,10.0,13.0,72,0.00,,OVC021,0.00,199.00,VWS V14.01,2013-03-25 19:21:00,
2013-03-25 15:25:00,38.9,30.3,29.50,ENE,72,10.0,18.0,71,0.00,,OVC021,0.00,197.00,VWS V14.01,2013-03-25 19:25:00,
2013-03-25 15:26:00,38.9,30.3,29.50,NE,46,14.0,18.0,71,0.00,,OVC021,0.00,446.00,VWS V14.01,2013-03-25 19:26:00,
2013-03-25 15:30:00,38.9,30.3,29.50,ENE,78,13.0,18.0,71,0.00,,OVC021,0.00,364.00,VWS V14.01,2013-03-25 19:30:00,
2013-03-25 15:32:00,39.0,30.1,29.49,East,87,13.0,19.0,70,0.00,,OVC021,0.00,367.00,VWS V14.01,2013-03-25 19:32:00,
2013-03-25 15:35:00,39.1,29.8,29.49,NE,49,13.0,19.0,69,0.00,,OVC021,0.00,200.00,VWS V14.01,2013-03-25 19:35:00,
2013-03-25 15:37:00,39.3,30.0,29.50,East,80,13.0,19.0,69,0.00,,OVC021,0.00,404.00,VWS V14.01,2013-03-25 19:37:00,
2013-03-25 15:40:00,39.3,30.0,29.50,ENE,73,6.0,19.0,69,0.00,,OVC021,0.00,404.00,VWS V14.01,2013-03-25 19:40:00,
2013-03-25 15:42:00,39.6,29.9,29.48,ENE,73,11.0,15.0,68,0.00,,OVC021,0.00,276.00,VWS V14.01,2013-03-25 19:42:00,
2013-03-25 15:45:00,39.6,29.6,29.48,NNE,24,10.0,15.0,67,0.00,,OVC021,0.00,589.00,VWS V14.01,2013-03-25 19:45:00,
2013-03-25 15:47:00,39.8,30.1,29.47,ENE,69,5.0,17.0,68,0.00,,OVC021,0.00,652.00,VWS V14.01,2013-03-25 19:47:00,
2013-03-25 15:50:00,39.8,30.5,29.47,ENE,76,4.0,17.0,69,0.00,,OVC021,0.00,652.00,VWS V14.01,2013-03-25 19:50:00,
2013-03-25 15:53:00,39.9,30.2,29.47,East,95,4.0,17.0,68,0.00,,OVC021,0.00,251.00,VWS V14.01,2013-03-25 19:53:00,
2013-03-25 15:55:00,39.9,30.2,29.47,ENE,68,6.0,17.0,68,0.00,,OVC021,0.00,251.00,VWS V14.01,2013-03-25 19:55:00,
2013-03-25 15:58:00,39.3,30.4,29.47,East,83,5.0,21.0,70,0.00,,OVC021,0.00,281.00,VWS V14.01,2013-03-25 19:58:00,
2013-03-25 16:00:00,39.3,30.4,29.47,East,83,5.0,21.0,70,0.00,,OVC021,0.00,281.00,VWS V14.01,2013-03-25 20:00:00,
2013-03-25 16:03:00,39.1,29.8,29.48,East,90,18.0,28.0,69,0.00,,OVC021,0.00,446.00,VWS V14.01,2013-03-25 20:03:00,
2013-03-25 16:05:00,39.1,29.8,29.48,East,90,18.0,28.0,69,0.00,,OVC021,0.00,446.00,VWS V14.01,2013-03-25 20:05:00,
2013-03-25 16:08:00,39.2,29.9,29.49,East,101,11.0,11.0,69,0.00,,OVC021,0.00,162.00,VWS V14.01,2013-03-25 20:08:00,
2013-03-25 16:10:00,39.2,29.9,29.49,ENE,78,8.0,19.0,69,0.00,,OVC021,0.00,162.00,VWS V14.01,2013-03-25 20:10:00,
2013-03-25 16:13:00,38.8,29.5,29.48,ENE,77,11.0,17.0,69,0.00,,OVC021,0.00,383.00,VWS V14.01,2013-03-25 20:13:00,
2013-03-25 16:15:00,38.8,29.5,29.48,NE,38,12.0,20.0,69,0.00,,OVC021,0.00,411.00,VWS V14.01,2013-03-25 20:15:00,
2013-03-25 16:18:00,38.9,30.0,29.48,NE,40,5.0,6.0,70,0.00,,OVC021,0.00,408.00,VWS V14.01,2013-03-25 20:18:00,
2013-03-25 16:20:00,38.8,29.9,29.48,NNE,15,6.0,19.0,70,0.00,,OVC021,0.00,403.00,VWS V14.01,2013-03-25 20:20:00,
2013-03-25 16:23:00,38.8,29.9,29.48,ENE,57,14.0,15.0,70,0.00,,OVC021,0.00,169.00,VWS V14.01,2013-03-25 20:23:00,
2013-03-25 16:25:00,38.8,29.9,29.48,ENE,59,12.0,24.0,70,0.00,,OVC021,0.00,163.00,VWS V14.01,2013-03-25 20:25:00,
2013-03-25 16:29:00,38.5,29.9,29.49,ENE,77,6.0,13.0,71,0.00,,OVC021,0.00,250.00,VWS V14.01,2013-03-25 20:29:00,
2013-03-25 16:30:00,38.6,30.0,29.48,ENE,76,10.0,15.0,71,0.00,,OVC021,0.00,172.00,VWS V14.01,2013-03-25 20:30:00,
2013-03-25 16:34:00,38.2,30.0,29.48,East,86,5.0,11.0,72,0.00,,OVC021,0.00,200.00,VWS V14.01,2013-03-25 20:34:00,
2013-03-25 16:35:00,38.3,29.7,29.48,ENE,78,11.0,15.0,71,0.00,,OVC021,0.00,209.00,VWS V14.01,2013-03-25 20:35:00,
2013-03-25 16:39:00,38.2,30.0,29.49,NE,47,7.0,7.0,72,0.00,,OVC021,0.00,267.00,VWS V14.01,2013-03-25 20:39:00,
2013-03-25 16:40:00,38.2,30.0,29.49,East,88,4.0,11.0,72,0.00,,OVC021,0.00,197.00,VWS V14.01,2013-03-25 20:40:00,
2013-03-25 16:44:00,38.1,30.2,29.49,East,90,12.0,12.0,73,0.00,,OVC021,0.00,156.00,VWS V14.01,2013-03-25 20:44:00,
2013-03-25 16:45:00,38.2,30.0,29.49,East,96,9.0,14.0,72,0.00,,OVC021,0.00,137.00,VWS V14.01,2013-03-25 20:45:00,
2013-03-25 16:49:00,38.2,30.0,29.48,East,90,8.0,11.0,72,0.00,,OVC021,0.00,174.00,VWS V14.01,2013-03-25 20:49:00,
2013-03-25 16:50:00,38.2,30.3,29.49,NNE,26,5.0,12.0,73,0.00,,OVC021,0.00,174.00,VWS V14.01,2013-03-25 20:50:00,
2013-03-25 16:55:00,38.1,30.2,29.48,East,85,5.0,14.0,73,0.00,,OVC021,0.00,139.00,VWS V14.01,2013-03-25 20:55:00,
2013-03-25 17:00:00,38.1,29.9,29.48,East,92,11.0,14.0,72,0.00,,OVC021,0.00,204.00,VWS V14.01,2013-03-25 21:00:00,
2013-03-25 17:05:00,37.9,30.0,29.49,ENE,77,8.0,15.0,73,0.00,,OVC021,0.00,162.00,VWS V14.01,2013-03-25 21:05:00,
2013-03-25 17:10:00,37.9,30.0,29.48,ENE,77,7.0,11.0,73,0.00,,OVC021,0.00,185.00,VWS V14.01,2013-03-25 21:10:00,
2013-03-25 17:15:00,37.9,30.0,29.48,ENE,78,7.0,19.0,73,0.00,,OVC021,0.00,104.00,VWS V14.01,2013-03-25 21:15:00,
2013-03-25 17:20:00,37.8,29.9,29.48,ENE,65,11.0,18.0,73,0.00,,OVC021,0.00,84.00,VWS V14.01,2013-03-25 21:20:00,
2013-03-25 17:25:00,37.7,29.8,29.48,NE,56,12.0,14.0,73,0.00,,OVC021,0.00,105.00,VWS V14.01,2013-03-25 21:25:00,
2013-03-25 17:30:00,37.7,29.8,29.48,ENE,61,2.0,14.0,73,0.00,,OVC021,0.00,102.00,VWS V14.01,2013-03-25 21:30:00,
2013-03-25 17:31:00,37.7,29.5,29.48,NNE,28,6.0,16.0,72,0.00,,OVC021,0.00,113.00,VWS V14.01,2013-03-25 21:31:00,
2013-03-25 17:35:00,37.7,29.5,29.48,NNE,22,10.0,16.0,72,0.00,,OVC021,0.00,116.00,VWS V14.01,2013-03-25 21:35:00,
2013-03-25 17:36:00,37.6,29.7,29.48,ENE,68,5.0,14.0,73,0.00,,OVC021,0.00,114.00,VWS V14.01,2013-03-25 21:36:00,
2013-03-25 17:40:00,37.6,29.7,29.49,ENE,57,7.0,14.0,73,0.00,,OVC021,0.00,105.00,VWS V14.01,2013-03-25 21:40:00,
2013-03-25 17:41:00,37.5,29.6,29.49,NNE,18,5.0,17.0,73,0.00,,OVC021,0.00,77.00,VWS V14.01,2013-03-25 21:41:00,
2013-03-25 17:45:00,37.5,29.6,29.49,ENE,63,6.0,17.0,73,0.00,,OVC021,0.00,65.00,VWS V14.01,2013-03-25 21:45:00,
2013-03-25 17:46:00,37.4,29.5,29.49,NNE,24,7.0,14.0,73,0.00,,OVC021,0.00,88.00,VWS V14.01,2013-03-25 21:46:00,
2013-03-25 17:50:00,37.5,29.6,29.48,NE,46,3.0,14.0,73,0.00,,OVC021,0.00,86.00,VWS V14.01,2013-03-25 21:50:00,
2013-03-25 17:51:00,37.4,29.9,29.49,ENE,61,4.0,12.0,74,0.00,,OVC021,0.00,63.00,VWS V14.01,2013-03-25 21:51:00,
2013-03-25 17:55:00,37.5,30.0,29.49,NNE,26,7.0,12.0,74,0.00,,OVC021,0.00,46.00,VWS V14.01,2013-03-25 21:55:00,
2013-03-25 17:56:00,37.4,29.9,29.48,ENE,68,4.0,11.0,74,0.00,,OVC021,0.00,26.00,VWS V14.01,2013-03-25 21:56:00,
2013-03-25 18:00:00,37.4,29.9,29.48,NE,43,4.0,11.0,74,0.00,,OVC021,0.00,25.00,VWS V14.01,2013-03-25 22:00:00,
2013-03-25 18:01:00,37.4,29.5,29.48,NE,52,11.0,12.0,73,0.00,,OVC021,0.00,25.00,VWS V14.01,2013-03-25 22:01:00,
2013-03-25 18:05:00,37.4,29.9,29.48,East,86,8.0,14.0,74,0.00,,OVC021,0.00,26.00,VWS V14.01,2013-03-25 22:05:00,
2013-03-25 18:07:00,37.3,29.8,29.50,East,80,1.0,13.0,74,0.00,,OVC021,0.00,37.00,VWS V14.01,2013-03-25 22:07:00,
2013-03-25 18:10:00,37.4,29.9,29.49,ENE,64,7.0,13.0,74,0.00,,OVC021,0.00,40.00,VWS V14.01,2013-03-25 22:10:00,
2013-03-25 18:12:00,37.4,29.9,29.49,NE,52,3.0,10.0,74,0.00,,OVC021,0.00,44.00,VWS V14.01,2013-03-25 22:12:00,
2013-03-25 18:15:00,37.4,30.2,29.49,ENE,61,5.0,10.0,75,0.00,,OVC021,0.00,40.00,VWS V14.01,2013-03-25 22:15:00,
2013-03-25 18:17:00,37.4,30.2,29.49,NE,55,10.0,15.0,75,0.00,,OVC021,0.00,19.00,VWS V14.01,2013-03-25 22:17:00,
2013-03-25 18:20:00,37.4,30.2,29.49,NNE,16,8.0,15.0,75,0.00,,OVC021,0.00,19.00,VWS V14.01,2013-03-25 22:20:00,
2013-03-25 18:22:00,37.4,30.2,29.49,East,85,4.0,12.0,75,0.00,,OVC021,0.00,19.00,VWS V14.01,2013-03-25 22:22:00,
2013-03-25 18:25:00,37.4,30.2,29.49,ENE,61,5.0,12.0,75,0.00,,OVC021,0.00,23.00,VWS V14.01,2013-03-25 22:25:00,
2013-03-25 18:28:00,37.4,30.2,29.49,NE,45,8.0,14.0,75,0.00,,OVC021,0.00,25.00,VWS V14.01,2013-03-25 22:28:00,
2013-03-25 18:30:00,37.4,30.2,29.49,NE,45,8.0,14.0,75,0.00,,OVC021,0.00,25.00,VWS V14.01,2013-03-25 22:30:00,
2013-03-25 18:33:00,37.3,30.1,29.49,ENE,59,11.0,15.0,75,0.00,,OVC021,0.00,18.00,VWS V14.01,2013-03-25 22:33:00,
2013-03-25 18:35:00,37.3,30.1,29.49,ENE,59,11.0,15.0,75,0.00,,OVC021,0.00,18.00,VWS V14.01,2013-03-25 22:35:00,
2013-03-25 18:38:00,37.3,30.1,29.49,NE,55,15.0,21.0,75,0.00,,OVC021,0.00,11.00,VWS V14.01,2013-03-25 22:38:00,
2013-03-25 18:40:00,37.3,30.1,29.49,NE,55,15.0,21.0,75,0.00,,OVC021,0.00,11.00,VWS V14.01,2013-03-25 22:40:00,
2013-03-25 18:43:00,37.1,29.9,29.49,East,100,8.0,8.0,75,0.00,,OVC021,0.00,7.00,VWS V14.01,2013-03-25 22:43:00,
2013-03-25 18:45:00,37.2,30.0,29.49,NE,52,4.0,15.0,75,0.00,,OVC021,0.00,7.00,VWS V14.01,2013-03-25 22:45:00,
2013-03-25 18:48:00,37.1,30.2,29.49,NE,42,7.0,11.0,76,0.00,,OVC021,0.00,5.00,VWS V14.01,2013-03-25 22:48:00,
2013-03-25 18:50:00,37.1,30.2,29.49,East,82,8.0,11.0,76,0.00,,OVC021,0.00,5.00,VWS V14.01,2013-03-25 22:50:00,
2013-03-25 18:53:00,37.1,30.2,29.49,ENE,63,7.0,10.0,76,0.00,,OVC021,0.00,0.00,VWS V14.01,2013-03-25 22:53:00,
2013-03-25 18:55:00,37.0,30.1,29.49,East,89,6.0,14.0,76,0.00,,OVC021,0.00,0.00,VWS V14.01,2013-03-25 22:55:00,
2013-03-25 18:58:00,37.0,30.1,29.49,NE,51,5.0,7.0,76,0.00,,OVC021,0.00,0.00,VWS V14.01,2013-03-25 22:58:00,
2013-03-25 19:00:00,37.0,30.1,29.49,NNE,17,6.0,15.0,76,0.00,,OVC021,0.00,0.00,VWS V14.01,2013-03-25 23:00:00,
2013-03-25 19:04:00,37.0,29.8,29.49,NE,51,5.0,10.0,75,0.00,,OVC021,0.00,0.00,VWS V14.01,2013-03-25 23:04:00,
2013-03-25 19:05:00,37.0,29.8,29.49,ENE,74,8.0,19.0,75,0.00,,OVC021,0.00,0.00,VWS V14.01,2013-03-25 23:05:00,
2013-03-25 19:09:00,36.9,30.0,29.49,East,82,6.0,14.0,76,0.00,,OVC021,0.00,0.00,VWS V14.01,2013-03-25 23:09:00,
2013-03-25 19:10:00,36.9,29.7,29.49,ENE,76,6.0,12.0,75,0.00,,OVC021,0.00,0.00,VWS V14.01,2013-03-25 23:10:00,
2013-03-25 19:14:00,36.8,29.6,29.49,ENE,61,10.0,13.0,75,0.00,,OVC021,0.00,0.00,VWS V14.01,2013-03-25 23:14:00,
2013-03-25 19:15:00,36.8,29.6,29.49,ENE,66,8.0,14.0,75,0.00,,OVC021,0.00,0.00,VWS V14.01,2013-03-25 23:15:00,
2013-03-25 19:19:00,36.7,29.9,29.49,NE,42,6.0,11.0,76,0.00,,OVC021,0.00,0.00,VWS V14.01,2013-03-25 23:19:00,
2013-03-25 19:20:00,36.7,29.5,29.49,ENE,75,11.0,13.0,75,0.00,,OVC021,0.00,0.00,VWS V14.01,2013-03-25 23:20:00,
2013-03-25 19:24:00,36.5,29.7,29.49,ENE,70,7.0,8.0,76,0.00,,OVC021,0.00,0.00,VWS V14.01,2013-03-25 23:24:00,
2013-03-25 19:25:00,36.6,29.8,29.49,ENE,62,2.0,11.0,76,0.00,,OVC021,0.00,0.00,VWS V14.01,2013-03-25 23:25:00,
2013-03-25 19:29:00,36.5,29.7,29.49,ENE,60,2.0,7.0,76,0.00,,OVC021,0.00,0.00,VWS V14.01,2013-03-25 23:29:00,
2013-03-25 19:30:00,36.5,29.7,29.49,ENE,72,2.0,9.0,76,0.00,,OVC021,0.00,0.00,VWS V14.01,2013-03-25 23:30:00,
2013-03-25 19:35:00,36.4,29.9,29.49,ENE,64,5.0,5.0,77,0.00,,OVC021,0.00,0.00,VWS V14.01,2013-03-25 23:35:00,
2013-03-25 19:40:00,36.4,29.9,29.50,North,360,4.0,9.0,77,0.00,,OVC021,0.00,0.00,VWS V14.01,2013-03-25 23:40:00,
2013-03-25 19:45:00,36.3,29.8,29.50,ENE,66,5.0,7.0,77,0.00,,OVC021,0.00,0.00,VWS V14.01,2013-03-25 23:45:00,
2013-03-25 19:50:00,36.2,30.0,29.50,ENE,71,2.0,8.0,78,0.00,,OVC021,0.00,0.00,VWS V14.01,2013-03-25 23:50:00,
2013-03-25 19:55:00,36.2,30.0,29.50,ENE,57,6.0,7.0,78,0.00,,OVC021,0.00,0.00,VWS V14.01,2013-03-25 23:55:00,
2013-03-25 20:00:00,36.1,29.9,29.50,ENE,63,3.0,10.0,78,0.00,,OVC021,0.00,0.00,VWS V14.01,2013-03-26 00:00:00,
2013-03-25 20:05:00,36.1,29.9,29.50,ENE,59,4.0,11.0,78,0.00,,OVC021,0.00,0.00,VWS V14.01,2013-03-26 00:05:00,
2013-03-25 20:10:00,36.0,29.8,29.50,North,11,3.0,7.0,78,0.00,,OVC021,0.00,0.00,VWS V14.01,2013-03-26 00:10:00,
2013-03-25 20:15:00,35.9,30.0,29.51,ENE,61,6.0,11.0,79,0.00,,OVC021,0.00,0.00,VWS V14.01,2013-03-26 00:15:00,
2013-03-25 20:20:00,35.9,30.0,29.51,NE,38,1.0,11.0,79,0.00,,OVC021,0.00,0.00,VWS V14.01,2013-03-26 00:20:00,
2013-03-25 20:25:00,35.9,30.0,29.51,NE,45,3.0,12.0,79,0.00,,OVC021,0.00,0.00,VWS V14.01,2013-03-26 00:25:00,
2013-03-25 20:30:00,35.8,29.9,29.51,NE,44,4.0,8.0,79,0.00,,OVC021,0.00,0.00,VWS V14.01,2013-03-26 00:30:00,
2013-03-25 20:35:00,35.8,29.9,29.51,NE,55,5.0,10.0,79,0.00,,OVC021,0.00,0.00,VWS V14.01,2013-03-26 00:35:00,
2013-03-25 20:40:00,35.8,29.9,29.51,NE,44,4.0,10.0,79,0.00,,OVC021,0.00,0.00,VWS V14.01,2013-03-26 00:40:00,
2013-03-25 20:45:00,35.7,29.8,29.51,NNE,13,3.0,7.0,79,0.00,,OVC021,0.00,0.00,VWS V14.01,2013-03-26 00:45:00,
2013-03-25 20:50:00,35.8,29.6,29.51,North,355,5.0,7.0,78,0.00,,OVC021,0.00,0.00,VWS V14.01,2013-03-26 00:50:00,
2013-03-25 20:55:00,35.8,29.6,29.51,NE,54,0.0,8.0,78,0.00,,OVC021,0.00,0.00,VWS V14.01,2013-03-26 00:55:00,
2013-03-25 21:00:00,35.8,29.6,29.51,NNE,22,5.0,7.0,78,0.00,,OVC021,0.00,0.00,VWS V14.01,2013-03-26 01:00:00,
2013-03-25 21:05:00,35.8,29.3,29.51,ENE,78,4.0,10.0,77,0.00,,OVC021,0.00,0.00,VWS V14.01,2013-03-26 01:05:00,
2013-03-25 21:10:00,35.9,29.4,29.50,NE,53,5.0,9.0,77,0.00,,OVC021,0.00,0.00,VWS V14.01,2013-03-26 01:10:00,
2013-03-25 21:15:00,35.9,29.4,29.50,NNE,28,2.0,7.0,77,0.00,,OVC021,0.00,0.00,VWS V14.01,2013-03-26 01:15:00,
2013-03-25 21:20:00,35.9,29.4,29.50,NNW,345,2.0,6.0,77,0.00,,OVC021,0.00,0.00,VWS V14.01,2013-03-26 01:20:00,
2013-03-25 21:25:00,35.9,29.4,29.50,NE,38,4.0,8.0,77,0.00,,OVC021,0.00,0.00,VWS V14.01,2013-03-26 01:25:00,
2013-03-25 21:30:00,35.9,29.1,29.50,NNE,13,3.0,6.0,76,0.00,,OVC021,0.00,0.00,VWS V14.01,2013-03-26 01:30:00,
2013-03-25 21:35:00,35.9,29.1,29.50,NNE,33,7.0,8.0,76,0.00,,OVC021,0.00,0.00,VWS V14.01,2013-03-26 01:35:00,
2013-03-25 21:40:00,36.0,28.9,29.50,NNE,16,3.0,8.0,75,0.00,,OVC021,0.00,0.00,VWS V14.01,2013-03-26 01:40:00,
2013-03-25 21:45:00,36.0,29.2,29.50,NE,42,6.0,8.0,76,0.00,,OVC021,0.00,0.00,VWS V14.01,2013-03-26 01:45:00,
2013-03-25 21:50:00,36.0,28.9,29.50,North,11,4.0,9.0,75,0.00,,OVC021,0.00,0.00,VWS V14.01,2013-03-26 01:50:00,
2013-03-25 21:55:00,36.0,29.2,29.50,NNW,346,3.0,7.0,76,0.00,,OVC021,0.00,0.00,VWS V14.01,2013-03-26 01:55:00,
2013-03-25 22:00:00,35.8,29.6,29.50,NE,48,4.0,10.0,78,0.00,,OVC021,0.00,0.00,VWS V14.01,2013-03-26 02:00:00,
2013-03-25 22:05:00,35.7,29.5,29.50,North,350,5.0,9.0,78,0.00,,OVC021,0.00,0.00,VWS V14.01,2013-03-26 02:05:00,
2013-03-25 22:10:00,35.6,29.7,29.50,North,360,5.0,10.0,79,0.00,,OVC021,0.00,0.00,VWS V14.01,2013-03-26 02:10:00,
2013-03-25 22:15:00,35.6,29.7,29.50,North,5,6.0,11.0,79,0.00,,OVC021,0.00,0.00,VWS V14.01,2013-03-26 02:15:00,
2013-03-25 22:20:00,35.6,29.7,29.50,NE,39,7.0,9.0,79,0.00,,OVC021,0.00,0.00,VWS V14.01,2013-03-26 02:20:00,
2013-03-25 22:25:00,35.6,29.7,29.50,NNW,348,5.0,9.0,79,0.00,,OVC021,0.00,0.00,VWS V14.01,2013-03-26 02:25:00,
2013-03-25 22:30:00,35.5,29.6,29.50,NNE,33,3.0,8.0,79,0.00,,OVC021,0.00,0.00,VWS V14.01,2013-03-26 02:30:00,
2013-03-25 22:35:00,35.5,29.6,29.50,NNE,29,3.0,9.0,79,0.00,,OVC021,0.00,0.00,VWS V14.01,2013-03-26 02:35:00,
2013-03-25 22:40:00,35.5,29.6,29.50,NNE,15,0.0,8.0,79,0.00,,OVC021,0.00,0.00,VWS V14.01,2013-03-26 02:40:00,
2013-03-25 22:45:00,35.5,29.6,29.50,North,5,3.0,10.0,79,0.00,,OVC021,0.00,0.00,VWS V14.01,2013-03-26 02:45:00,
2013-03-25 22:50:00,35.4,29.5,29.49,North,355,3.0,8.0,79,0.00,,OVC021,0.00,0.00,VWS V14.01,2013-03-26 02:50:00,
2013-03-25 22:55:00,35.5,29.6,29.49,North,5,1.0,8.0,79,0.00,,OVC021,0.00,0.00,VWS V14.01,2013-03-26 02:55:00,
2013-03-25 23:00:00,35.4,29.5,29.49,NNE,26,4.0,6.0,79,0.00,,OVC021,0.00,0.00,VWS V14.01,2013-03-26 03:00:00,
2013-03-25 23:05:00,35.4,29.5,29.49,North,360,3.0,8.0,79,0.00,,OVC021,0.00,0.00,VWS V14.01,2013-03-26 03:05:00,
2013-03-25 23:10:00,35.4,29.2,29.49,NNW,339,1.0,6.0,78,0.00,,OVC021,0.00,0.00,VWS V14.01,2013-03-26 03:10:00,
2013-03-25 23:15:00,35.4,29.5,29.49,NNW,331,3.0,6.0,79,0.00,,OVC021,0.00,0.00,VWS V14.01,2013-03-26 03:15:00,
2013-03-25 23:20:00,35.3,29.1,29.49,NNW,338,3.0,4.0,78,0.00,,OVC021,0.00,0.00,VWS V14.01,2013-03-26 03:20:00,
2013-03-25 23:25:00,35.3,29.1,29.49,NNE,17,4.0,7.0,78,0.00,,OVC021,0.00,0.00,VWS V14.01,2013-03-26 03:25:00,
2013-03-25 23:30:00,35.3,29.1,29.49,NNE,22,1.0,7.0,78,0.00,,OVC021,0.00,0.00,VWS V14.01,2013-03-26 03:30:00,
2013-03-25 23:35:00,35.3,29.1,29.49,NNE,17,2.0,6.0,78,0.00,,OVC021,0.00,0.00,VWS V14.01,2013-03-26 03:35:00,
2013-03-25 23:40:00,35.2,29.0,29.49,NNE,12,3.0,6.0,78,0.00,,OVC021,0.00,0.00,VWS V14.01,2013-03-26 03:40:00,
2013-03-25 23:45:00,35.2,29.0,29.49,North,360,3.0,6.0,78,0.00,,OVC021,0.00,0.00,VWS V14.01,2013-03-26 03:45:00,
2013-03-25 23:50:00,35.2,29.0,29.49,North,360,4.0,5.0,78,0.00,,OVC021,0.00,0.00,VWS V14.01,2013-03-26 03:50:00,
2013-03-25 23:55:00,35.2,28.7,29.49,NNE,24,5.0,8.0,77,0.00,,OVC021,0.00,0.00,VWS V14.01,2013-03-26 03:55:00,